Roseau, MN

11:23 AM CST on December 07, 2016 (GMT -0600)
Roseau Municipal-Billberg

Weather History for KROX - April, 2013

Change the Weather History Date:

Tuesday, April 23, 2013

  Actual Average Record
Temperature  
Mean Temperature 27 °F -  
Max Temperature 37 °F 54 °F 87 °F (1990)
Min Temperature 17 °F 31 °F 17 °F (1959)
Degree Days  
Heating Degree Days 38    
Moisture  
Dew Point 19 °F    
Average Humidity 70    
Maximum Humidity 86    
Minimum Humidity 52    
Precipitation  
Precipitation 0.00 in - - ()
Sea Level Pressure  
Sea Level Pressure 30.13 in    
Wind  
Wind Speed 6 mph (WSW)    
Max Wind Speed 13 mph    
Max Gust Speed 18 mph    
Visibility 10 miles    
Events      
Averages and records for this station are not official NWS values.
T = Trace of Precipitation, MM = Missing Value Source: NWS Daily Summary

Daily Weather History Graph

Daily Weather History Graph

Search for Another Location

Airport or City:

Trip Planner

Search our weather history database for the weather conditions in past years. The results will help you decide how hot, cold, wet, or windy it might be!

Date:

Astronomy

Apr. 23, 2013 Rise Set
Actual Time 6:16 AM CDT 8:26 PM CDT
Civil Twilight 5:41 AM CDT 9:01 PM CDT
Nautical Twilight 4:59 AM CDT 9:44 PM CDT
Astronomical Twilight 4:10 AM CDT 10:33 PM CDT
Moon 6:14 PM CDT (4/23) 4:56 AM CDT (4/23)
Length of Visible Light 15h 19m
Length of Day
14h 10m
Waxing Gibbous, 94% of the Moon is Illuminated
Apr 23
Waxing Gibbous
Apr 25
Full
May 2
Last Quarter
May 9
New
May 17
First Quarter

Hourly Weather History & Observations

Time (CDT) Temp. Windchill Dew Point Humidity Pressure Visibility Wind Dir Wind Speed Gust Speed Precip Events Conditions
12:14 AM 24.8 °F 17.9 °F 17.6 °F 74% 30.29 in 10.0 mi WNW 5.8 mph - N/A   Clear
12:34 AM 24.8 °F 17.9 °F 17.6 °F 74% 30.28 in 10.0 mi WNW 5.8 mph - N/A   Clear
12:54 AM 24.8 °F 17.9 °F 17.6 °F 74% 30.28 in 10.0 mi WNW 5.8 mph - N/A   Clear
1:15 AM 23.0 °F 17.0 °F 17.6 °F 80% 30.27 in 10.0 mi WNW 4.6 mph - N/A   Clear
1:34 AM 23.0 °F 15.8 °F 17.6 °F 80% 30.27 in 10.0 mi NW 5.8 mph - N/A   Clear
1:54 AM 23.0 °F 14.7 °F 17.6 °F 80% 30.27 in 10.0 mi WNW 6.9 mph - N/A   Clear
2:15 AM 23.0 °F 15.8 °F 17.6 °F 80% 30.26 in 10.0 mi WNW 5.8 mph - N/A   Clear
2:34 AM 21.2 °F 14.9 °F 15.8 °F 80% 30.26 in 10.0 mi WNW 4.6 mph - N/A   Clear
2:54 AM 21.2 °F 14.9 °F 15.8 °F 80% 30.25 in 10.0 mi West 4.6 mph - N/A   Clear
3:15 AM 21.2 °F 14.9 °F 15.8 °F 80% 30.24 in 10.0 mi West 4.6 mph - N/A   Clear
3:34 AM 21.2 °F 13.6 °F 15.8 °F 80% 30.24 in 10.0 mi West 5.8 mph - N/A   Clear
3:54 AM 21.2 °F 13.6 °F 15.8 °F 80% 30.24 in 10.0 mi West 5.8 mph - N/A   Clear
4:15 AM 21.2 °F 14.9 °F 15.8 °F 80% 30.23 in 10.0 mi West 4.6 mph - N/A   Clear
4:34 AM 21.2 °F 14.9 °F 15.8 °F 80% 30.23 in 10.0 mi West 4.6 mph - N/A   Clear
4:54 AM 21.2 °F 14.9 °F 15.8 °F 80% 30.22 in 10.0 mi West 4.6 mph - N/A   Clear
5:14 AM 21.2 °F 14.9 °F 15.8 °F 80% 30.22 in 10.0 mi West 4.6 mph - N/A   Clear
5:34 AM 19.4 °F - 15.8 °F 86% 30.22 in 10.0 mi Calm Calm - N/A   Clear
5:54 AM 19.4 °F - 14.0 °F 80% 30.21 in 10.0 mi Calm Calm - N/A   Clear
6:14 AM 17.6 °F 12.3 °F 14.0 °F 86% 30.21 in 10.0 mi South 3.5 mph - N/A   Clear
6:34 AM 17.6 °F 12.3 °F 14.0 °F 86% 30.20 in 10.0 mi South 3.5 mph - N/A   Clear
6:54 AM 19.4 °F - 15.8 °F 86% 30.20 in 10.0 mi Calm Calm - N/A   Clear
7:14 AM 19.4 °F 14.3 °F 15.8 °F 86% 30.20 in 10.0 mi SSW 3.5 mph - N/A   Clear
7:34 AM 21.2 °F 16.4 °F 17.6 °F 86% 30.20 in 10.0 mi SW 3.5 mph - N/A   Clear
7:54 AM 21.2 °F - 17.6 °F 86% 30.19 in 10.0 mi Calm Calm - N/A   Clear
8:14 AM 23.0 °F - 17.6 °F 80% 30.20 in 10.0 mi Calm Calm - N/A   Clear
8:34 AM 24.8 °F - 17.6 °F 74% 30.20 in 10.0 mi Calm Calm - N/A   Clear
8:54 AM 26.6 °F - 19.4 °F 74% 30.20 in 10.0 mi Calm Calm - N/A   Clear
9:14 AM 26.6 °F - 19.4 °F 74% 30.19 in 10.0 mi Calm Calm - N/A   Clear
9:34 AM 28.4 °F - 19.4 °F 69% 30.18 in 10.0 mi Calm Calm - N/A   Clear
9:54 AM 28.4 °F - 21.2 °F 74% 30.18 in 10.0 mi Calm Calm - N/A   Clear
10:14 AM 28.4 °F - 21.2 °F 74% 30.17 in 10.0 mi Calm Calm - N/A   Clear
10:34 AM 30.2 °F 25.4 °F 21.2 °F 69% 30.17 in 10.0 mi SW 4.6 mph - N/A   Clear
10:54 AM 30.2 °F 24.3 °F 19.4 °F 64% 30.16 in 10.0 mi SW 5.8 mph - N/A   Clear
11:14 AM 30.2 °F 23.4 °F 21.2 °F 69% 30.16 in 10.0 mi WSW 6.9 mph - N/A   Clear
11:34 AM 32.0 °F 24.2 °F 21.2 °F 64% 30.15 in 10.0 mi SSW 9.2 mph - N/A   Clear
11:54 AM 33.8 °F 25.8 °F 21.2 °F 60% 30.14 in 10.0 mi SW 10.4 mph - N/A   Clear
12:14 PM 33.8 °F 27.0 °F 21.2 °F 60% 30.14 in 10.0 mi SW 8.1 mph - N/A   Clear
12:34 PM 33.8 °F 25.8 °F 21.2 °F 60% 30.13 in 10.0 mi SSW 10.4 mph - N/A   Clear
12:54 PM 33.8 °F 26.4 °F 21.2 °F 60% 30.12 in 10.0 mi SW 9.2 mph - N/A   Clear
1:14 PM 33.8 °F 25.3 °F 23.0 °F 65% 30.11 in 10.0 mi SW 11.5 mph - N/A   Clear
1:34 PM 35.6 °F 28.6 °F 21.2 °F 56% 30.11 in 10.0 mi WSW 9.2 mph - N/A   Clear
1:54 PM 35.6 °F 29.9 °F 21.2 °F 56% 30.10 in 10.0 mi WSW 6.9 mph - N/A   Clear
2:14 PM 35.6 °F 29.2 °F 21.2 °F 56% 30.09 in 10.0 mi WSW 8.1 mph - N/A   Clear
2:34 PM 35.6 °F 28.0 °F 21.2 °F 56% 30.09 in 10.0 mi WSW 10.4 mph 17.3 mph N/A   Clear
2:54 PM 35.6 °F 28.0 °F 21.2 °F 56% 30.08 in 10.0 mi SW 10.4 mph - N/A   Clear
3:14 PM 35.6 °F 28.0 °F 19.4 °F 52% 30.07 in 10.0 mi WSW 10.4 mph - N/A   Clear
3:34 PM 35.6 °F 27.5 °F 21.2 °F 56% 30.06 in 10.0 mi SW 11.5 mph - N/A   Clear
3:54 PM 35.6 °F 28.0 °F 21.2 °F 56% 30.06 in 10.0 mi WSW 10.4 mph - N/A   Clear
4:14 PM 35.6 °F 28.6 °F 19.4 °F 52% 30.05 in 10.0 mi WSW 9.2 mph - N/A   Clear
4:34 PM 37.4 °F 30.3 °F 21.2 °F 52% 30.05 in 10.0 mi WSW 10.4 mph - N/A   Clear
4:54 PM 35.6 °F 27.1 °F 21.2 °F 56% 30.04 in 10.0 mi SW 12.7 mph - N/A   Clear
5:14 PM 37.4 °F 29.3 °F 21.2 °F 52% 30.04 in 10.0 mi SW 12.7 mph - N/A   Clear
5:34 PM 35.6 °F 27.1 °F 21.2 °F 56% 30.03 in 10.0 mi WSW 12.7 mph 17.3 mph N/A   Clear
5:54 PM 35.6 °F 28.0 °F 21.2 °F 56% 30.03 in 10.0 mi WSW 10.4 mph 18.4 mph N/A   Clear
6:14 PM 35.6 °F 27.5 °F 23.0 °F 60% 30.03 in 10.0 mi SW 11.5 mph - N/A   Clear
6:34 PM 35.6 °F 28.6 °F 21.2 °F 56% 30.02 in 10.0 mi West 9.2 mph - N/A   Clear
6:54 PM 35.6 °F 27.1 °F 21.2 °F 56% 30.02 in 10.0 mi WSW 12.7 mph - N/A   Clear
7:14 PM 35.6 °F 28.6 °F 21.2 °F 56% 30.02 in 10.0 mi WSW 9.2 mph - N/A   Clear
7:34 PM 35.6 °F 28.6 °F 21.2 °F 56% 30.02 in 10.0 mi SW 9.2 mph - N/A   Clear
7:54 PM 33.8 °F 27.7 °F 21.2 °F 60% 30.02 in 10.0 mi SW 6.9 mph - N/A   Clear
8:14 PM 33.8 °F 27.7 °F 23.0 °F 65% 30.01 in 10.0 mi SW 6.9 mph - N/A   Clear
8:34 PM 32.0 °F 26.4 °F 23.0 °F 69% 30.02 in 10.0 mi WSW 5.8 mph - N/A   Clear
8:54 PM 32.0 °F 26.4 °F 23.0 °F 69% 30.01 in 10.0 mi WSW 5.8 mph - N/A   Clear
9:15 PM 30.2 °F 24.3 °F 23.0 °F 75% 30.01 in 10.0 mi SW 5.8 mph - N/A   Clear
9:34 PM 30.2 °F 25.4 °F 21.2 °F 69% 30.01 in 10.0 mi WSW 4.6 mph - N/A   Clear
9:55 PM 30.2 °F 25.4 °F 21.2 °F 69% 30.00 in 10.0 mi SW 4.6 mph - N/A   Clear
10:14 PM 28.4 °F 24.6 °F 21.2 °F 74% 30.00 in 10.0 mi SW 3.5 mph - N/A   Clear
10:34 PM 28.4 °F 24.6 °F 21.2 °F 74% 29.99 in 10.0 mi SW 3.5 mph - N/A   Clear
10:54 PM 28.4 °F 24.6 °F 21.2 °F 74% 29.99 in 10.0 mi SW 3.5 mph - N/A   Clear
11:14 PM 28.4 °F 24.6 °F 21.2 °F 74% 29.98 in 10.0 mi SW 3.5 mph - N/A   Clear
11:35 PM 28.4 °F 24.6 °F 21.2 °F 74% 29.98 in 10.0 mi SW 3.5 mph - N/A   Clear
11:54 PM 28.4 °F 23.3 °F 21.2 °F 74% 29.97 in 10.0 mi WSW 4.6 mph - N/A   Clear